Content
SEND FEEDBACK

Daily
Averages
Monthly
Summary
Canada

WHITEFISH LAKE, ONTARIO


Home > North America > Canada > Ontario
Elevation: 1309 feet     Latitude: 48 17N     Longitude: 89 55W

WEATHER
 
SELECT A DAY
Number of Records: 79,480;   Date Range: 8/16/04 - 8/31/14
 
SHARE

PRINT THIS DATA

[ ← Previous Day ]
WEATHER ALMANAC - JULY 4, 2014
[ Next Day → ]
[ °C ]   °F
Weather ElementAverageHighLow
Temperature64.6 °F78.8 °F (3:00 pm)44.6 °F (5:00 am)
Dewpoint49.1 °F54.1 °F (11:00 am)41.9 °F (5:00 am)
Humidity62 %96 % (4:00 am)33 % (4:00 pm)
Barometer30.17 in30.24 in (9:00 am)30.08 in (11:00 pm)
Wind Speed5.9 mph12.7 mph (5:00 pm)
Wind Gust19.6 mph (5:00 pm)
Weather ElementAverage
Wind DirectionWSW (232.2 °)

Weather ElementTotal
Precipitation---
Heating Degree Days3.3 (Base 65)
Growing Degree Days11.7 (Base 50)
Averaged from 23 records on July 4, 2014
WEATHER CONDITIONS BREAKOUT
WIND DIRECTION BREAKOUT
WEATHER BY HOUR - JULY 4, 2014
[ °C ]   °F
Local TimeTemperatureDewpointHumidityBarometerVisibilityWind DirectionWind SpeedGust SpeedPrecipitationEventsConditions
1:00 AM53.6 °F49.8 °F87 %30.18 inWSW (250°)1.2 mph
2:00 AM53.8 °F50.0 °F87 %30.19 inWest (260°)4.6 mph
3:00 AM52.3 °F49.8 °F91 %30.18 inSSW (210°)4.6 mph
4:00 AM46.0 °F45.0 °F96 %30.19 inWSW (240°)3.5 mph
5:00 AM44.6 °F41.9 °F90 %30.19 inWest (260°)3.5 mph
6:00 AM45.3 °F44.2 °F96 %30.20 inSW (230°)4.6 mph
7:00 AM49.6 °F48.0 °F94 %30.22 inSW (220°)5.8 mph
8:00 AM53.6 °F49.6 °F86 %30.23 inSW (230°)3.5 mph
9:00 AM61.0 °F51.6 °F71 %30.24 inWest (260°)3.5 mph
10:00 AM66.6 °F54.0 °F64 %30.23 inWSW (250°)4.6 mph
11:00 AM70.9 °F54.1 °F55 %30.21 inSW (230°)5.8 mph
12:00 PM74.5 °F52.0 °F45 %30.20 inWest (280°)5.8 mph
1:00 PM77.0 °F52.2 °F42 %30.20 inSW (230°)5.8 mph
2:00 PM78.3 °F49.6 °F37 %30.18 inWSW (240°)6.9 mph
3:00 PM78.8 °F49.6 °F36 %30.16 inWSW (250°)9.2 mph
4:00 PM78.1 °F46.4 °F33 %30.15 inSouth (190°)10.4 mph
5:00 PM77.7 °F47.1 °F34 %30.14 inSSW (200°)12.7 mph19.6 mph
6:00 PM76.3 °F47.8 °F37 %30.14 inSSW (210°)10.4 mph
7:00 PM72.1 °F48.9 °F44 %30.13 inSSW (200°)8.1 mph
8:00 PM72.0 °F49.1 °F44 %30.12 inSSW (210°)4.6 mph
9:00 PM70.2 °F50.0 °F49 %30.11 inSW (230°)5.8 mph
10:00 PM67.3 °F50.5 °F55 %30.09 inWSW (240°)4.6 mph
11:00 PM65.7 °F47.8 °F53 %30.08 inSW (220°)6.9 mph
Hourly data recorded from CZTB, located miles away from Whitefish Lake, Ontario







STORIES FROM OUR PARTNERS